FW8634 Weather Reports


time (UTC)temp
C
wind
direction
speed
KPH
gust
KPH
rain 1hr
cm
rain 24hr
cm
rain mn
cm
humidity
%
barometer
mb
20260505063049 13 0 0.0 6.4 0.00 0.00 0.00 67 1015.3
20260505061556 13 8 0.0 3.2 0.00 0.00 0.00 65 1015.4
20260505060057 13 8 0.0 3.2 0.00 0.00 0.00 65 1015.5
20260505054544 13 34 3.2 11.3 0.00 0.00 0.00 64 1015.7
20260505053043 14 42 3.2 9.7 0.00 0.00 0.00 63 1015.6
20260505051537 14 46 4.8 8.0 0.00 0.00 0.00 62 1015.6
20260505041550 14 27 1.6 8.0 0.00 0.00 0.00 62 1015.5
20260505040050 13 20 1.6 6.4 0.00 0.00 0.00 64 1015.4
20260505034542 12 32 0.0 1.6 0.00 0.00 0.00 67 1015.5
20260505033043 14 19 0.0 1.6 0.00 0.00 0.00 61 1015.8
20260505031540 15 0 0.0 0.0 0.00 0.00 0.00 59 1015.8
20260505030109 15 0 0.0 0.0 0.00 0.00 0.00 58 1015.9
20260505024549 15 0 0.0 1.6 0.00 0.00 0.00 60 1015.9
20260505023042 15 0 0.0 3.2 0.00 0.00 0.00 57 1015.8
20260505021543 15 0 0.0 4.8 0.00 0.00 0.00 60 1015.6
20260505020043 15 0 0.0 1.6 0.00 0.00 0.00 59 1015.6
20260505014559 16 0 0.0 1.6 0.00 0.00 0.00 57 1015.5
20260505013051 17 0 0.0 3.2 0.00 0.00 0.00 54 1015.3
20260505011544 17 30 0.0 8.0 0.00 0.00 0.00 54 1015.1
20260505010052 17 13 0.0 6.4 0.00 0.00 0.00 55 1015.1
20260505004548 17 0 0.0 3.2 0.00 0.00 0.00 53 1014.8
20260505003053 17 27 0.0 1.6 0.00 0.00 0.00 51 1014.7
20260505001545 18 0 0.0 1.6 0.00 0.00 0.00 51 1014.6
20260505000043 20 0 0.0 3.2 0.00 0.00 0.00 48 1014.5
20260504234540 20 26 3.2 11.3 0.00 0.00 0.00 44 1014.4
20260504233050 21 25 6.4 12.9 0.00 0.00 0.00 41 1014.2
20260504231544 21 41 6.4 16.1 0.00 0.00 0.00 40 1014.2
20260504230046 22 32 6.4 17.7 0.00 0.00 0.00 38 1014.1
20260504224543 22 34 11.3 24.1 0.00 0.00 0.00 36 1014.1
20260504223058 22 32 8.0 24.1 0.00 0.00 0.00 36 1014.2
20260504221542 23 354 14.5 27.4 0.00 0.00 0.00 36 1014.1
20260504220039 23 59 11.3 24.1 0.00 0.00 0.00 37 1014.0
20260504214550 23 26 12.9 24.1 0.00 0.00 0.00 37 1014.0
20260504213046 24 30 11.3 22.5 0.00 0.00 0.00 36 1014.0
20260504211615 24 41 14.5 32.2 0.00 0.00 0.00 35 1014.0
20260504210049 24 49 6.4 24.1 0.00 0.00 0.00 35 1014.1
20260504204546 24 32 14.5 27.4 0.00 0.00 0.00 35 1014.1
20260504203038 25 37 9.7 24.1 0.00 0.00 0.00 35 1014.2
20260504201544 25 293 11.3 22.5 0.00 0.00 0.00 33 1014.5
20260504200042 25 322 4.8 27.4 0.00 0.00 0.00 33 1014.6
20260504194547 25 18 9.7 19.3 0.00 0.00 0.00 35 1014.7
20260504193039 24 31 3.2 19.3 0.00 0.00 0.00 33 1014.9
20260504191542 25 331 6.4 14.5 0.00 0.00 0.00 34 1015.1
20260504190059 23 11 11.3 19.3 0.00 0.00 0.00 35 1015.4
20260504184549 23 352 3.2 14.5 0.00 0.00 0.00 33 1015.6
20260504183050 23 18 4.8 19.3 0.00 0.00 0.00 36 1015.9
20260504181600 23 344 8.0 19.3 0.00 0.00 0.00 33 1016.0
20260504180053 23 6 3.2 11.3 0.00 0.00 0.00 36 1016.2
20260504174544 22 337 8.0 16.1 0.00 0.00 0.00 36 1016.4
20260504173048 22 4 12.9 25.7 0.00 0.00 0.00 37 1016.4
20260504171541 22 332 9.7 20.9 0.00 0.00 0.00 37 1016.5
20260504081542 5 0 1.6 3.2 0.00 0.00 0.00 86 1017.4